QZS-4 (QZSS/PRN 195)

Last updated on Fri Jun 19 2026 17:10:02 GMT+0000 (Coordinated Universal Time)

1 42965U 17062A 26169.35012919 -.00000360 00000+0 00000+0 0 9994 2 42965 40.1070 343.4662 0745019 271.8091 274.2172 1.00250086 31812
UTC large
Height (km)
Speed (km/s)
/
Latitude / Longitude
Inclination (degrees)
Orbital Period (minutes)
Azimuth
Elevation
Range (km)
Doppler Factor

Next 0 passes for location: London (51.5072 / 0.1276)

No passes found over London.
QZS-4 (QZSS/PRN 195)